Left ArrowRight Arrow

35.59393, -105.2239

Hourly Observations for June 22, 2024

Temp ( °F °C ) Dew Point ( °F °C ) Humidity (%) Winds ( mph kmh ) Pressure ( in mb ) Visibility ( mi km ) Precip ( " mm )
12:09 am 00:09 Mostly Cloudy 61 16.1 60 15.6 97 97 S 8 13 29.98 1015 10 16 0.00 0.00
12:24 am 00:24 Mostly Cloudy 61 16.1 60 15.6 97 97 SSW 8 13 29.97 1015 10 16 0.00 0.00
12:53 am 00:53 Partly Cloudy 60 15.6 59 15 96 96 SSW 9 15 30.06 1018 9 14 0.00 0.00
1:53 am 01:53 Partly Cloudy 60 15.6 59 15 96 96 SSW 12 19 30.04 1017 10 16 0.00 0.00
2:53 am 02:53 Partly Cloudy 59 15 58 14.4 96 96 S 9 15 30.04 1017 10 16 0.00 0.00
3:53 am 03:53 Mostly Clear 59 15 57 13.9 93 93 SW 9 15 30.03 1017 10 16 0.00 0.00
4:12 am 04:12 Mostly Cloudy 59 15 58 14.4 96 96 SW 5 7 29.95 1014 10 16 0.00 0.00
4:45 am 04:45 Cloudy with Mist and Fog 59 15 58 14.4 96 96 SW 3 6 29.95 1014 3 4 0.00 0.00
4:59 am 04:59 Partly Cloudy with Mist and Fog 58 14.4 57 13.9 97 97 Calm 29.97 1015 2 3 0.00 0.00
5:16 am 05:16 Clear with Mist and Fog 57 13.9 56 13.3 96 96 S 5 7 29.97 1015 3 5 0.00 0.00
5:53 am 05:53 Sunny 58 14.4 57 13.9 97 97 S 9 15 30.02 1017 10 16 0.00 0.00
6:53 am 06:53 Sunny 59 15 57 13.9 93 93 SSE 3 6 30.02 1017 10 16 0.00 0.00
7:53 am 07:53 Sunny 61 16.1 58 14.4 90 90 NNE 3 6 30.03 1017 10 16 0.00 0.00
8:53 am 08:53 Sunny 64 17.8 58 14.4 80 80 SW 3 6 30.03 1017 10 16 0.00 0.00
9:53 am 09:53 Cloudy 63 17.2 58 14.4 84 84 WSW 3 6 30.04 1017 10 16 0.01 0.13
10:53 am 10:53 Mostly Cloudy 69 20.6 55 12.8 61 61 NW 3 6 30.02 1017 10 16 0.00 0.00
11:53 am 11:53 Partly Cloudy 71 21.7 58 14.4 63 63 NNW 3 6 30.01 1016 10 16 0.00 0.00
12:53 pm 12:53 Sunny 73 22.8 59 15 61 61 Calm 30.00 1016 10 16 0.00 0.00
1:53 pm 13:53 Mostly Cloudy 73 22.8 58 14.4 59 59 NW 5 7 30.00 1016 10 16 0.00 0.00
2:53 pm 14:53 Mostly Cloudy 72 22.2 62 16.7 71 71 S 3 6 30.01 1016 10 16 0.00 0.00
3:53 pm 15:53 Mostly Cloudy 73 22.8 59 15 61 61 Calm 30.00 1016 10 16 0.00 0.00
4:53 pm 16:53 Mostly Sunny 73 22.8 61 16.1 66 66 SSW 6 9 29.98 1015 10 16 0.00 0.00
5:53 pm 17:53 Sunny 73 22.8 59 15 61 61 NW 3 6 29.97 1015 10 16 0.00 0.00
6:53 pm 18:53 Sunny 72 22.2 60 15.6 66 66 Calm 29.98 1015 10 16 0.00 0.00
7:53 pm 19:53 Sunny 71 21.7 58 14.4 63 63 Calm 29.99 1016 10 16 0.01 0.13
8:53 pm 20:53 Clear 71 21.7 54 12.2 55 55 ENE 5 7 29.98 1015 10 16 0.00 0.00
9:53 pm 21:53 Clear 66 18.9 60 15.6 81 81 N 6 9 30.03 1017 10 16 0.00 0.00
10:53 pm 22:53 Clear 63 17.2 58 14.4 84 84 N 7 11 30.04 1017 10 16 0.00 0.00
11:53 pm 23:53 Mostly Clear 63 17.2 56 13.3 78 78 N 7 11 30.03 1017 10 16 0.00 0.00

Powered by Vaisala Xweather